Location: Asheville, NC
(35.6000°N, 82.5500°W)
Time: 18:46:22
(UTC-05:00)

UWE-3 - Pass Details

Date: 10 February 2018
Orbit: 586 x 684 km, 97.6° (Epoch: 16 February)

Event Time Altitude Azimuth Distance (km) Brightness Sun altitude
Rises 18:41:54 0° 145° (SE) 3,013 ? -7.7°
Reaches altitude 10° 18:44:17 10° 135° (SE) 2,110 ? -8.1°
Maximum altitude 18:48:26 34° 72° (ENE) 1,129 ? -9.0°
Drops below altitude 10° 18:52:37 10° 8° (N) 2,131 ? -9.8°
Sets 18:55:01 0° 359° (N) 3,047 ? -10.3°
